When you browse on this site, cookies collect data to enhance your experience and personalize the content and advertising you see.
Visit our Privacy Policy to learn more. By continuing to use the site, you agree to this use of cookies and data.
  • In Czech Republic
  • List of Countries
  • For 7 days
  • Water Temperature
  • Weather Map
  • Weather Widgets
  • user-avatar
    Login

    Hourly Weather Lattes

    Today, 4 June, Thursday

    Time Temperature Precipitation Wind Pressure Humidity
    00:00 +19°C° 0 mm 3 mps 751 mmHg 90%
    01:00 +19°C° 0.4 mm 3 mps 750 mmHg 88%
    02:00 +19°C° 0.4 mm 3 mps 750 mmHg 86%
    03:00 +18°C° 0.4 mm 3 mps 749 mmHg 84%
    04:00 +19°C° 0.1 mm 4 mps 749 mmHg 82%
    05:00 +19°C° 0.1 mm 4 mps 749 mmHg 80%
    06:00 +19°C° 0.1 mm 5 mps 749 mmHg 78%
    07:00 +19°C° 0.3 mm 5 mps 749 mmHg 77%
    08:00 +19°C° 0.3 mm 5 mps 749 mmHg 76%
    09:00 +19°C° 0.3 mm 5 mps 749 mmHg 75%
    10:00 +20°C° 0.1 mm 5 mps 749 mmHg 67%
    11:00 +21°C° 0.1 mm 5 mps 748 mmHg 59%
    12:00 +22°C° 0.1 mm 5 mps 748 mmHg 51%
    13:00 +22°C° 0.1 mm 6 mps 748 mmHg 52%
    14:00 +23°C° 0.1 mm 7 mps 748 mmHg 52%
    15:00 +23°C° 0.1 mm 7 mps 748 mmHg 53%
    16:00 +22°C° 0 mm 7 mps 748 mmHg 54%
    17:00 +22°C° 0 mm 8 mps 748 mmHg 56%
    18:00 +21°C° 0 mm 8 mps 748 mmHg 57%
    19:00 +20°C° 0 mm 7 mps 748 mmHg 61%
    20:00 +18°C° 0 mm 7 mps 749 mmHg 64%
    21:00 +17°C° 0 mm 7 mps 749 mmHg 68%
    22:00 +17°C° 0 mm 7 mps 750 mmHg 68%
    23:00 +17°C° 0 mm 8 mps 750 mmHg 67%

    Tomorrow, 5 June, Friday

    Time Temperature Precipitation Wind Pressure Humidity
    00:00 +16°C° 0 mm 8 mps 750 mmHg 67%
    01:00 +16°C° 0 mm 8 mps 750 mmHg 68%
    02:00 +15°C° 0 mm 8 mps 750 mmHg 69%
    03:00 +15°C° 0 mm 8 mps 751 mmHg 70%
    04:00 +15°C° 0 mm 8 mps 751 mmHg 67%
    05:00 +16°C° 0 mm 8 mps 752 mmHg 64%
    06:00 +16°C° 0 mm 8 mps 752 mmHg 61%
    07:00 +17°C° 0 mm 9 mps 752 mmHg 56%
    08:00 +18°C° 0 mm 9 mps 753 mmHg 52%
    09:00 +19°C° 0 mm 10 mps 753 mmHg 47%
    10:00 +21°C° 0 mm 10 mps 753 mmHg 46%
    11:00 +22°C° 0 mm 10 mps 753 mmHg 45%
    12:00 +23°C° 0 mm 10 mps 753 mmHg 44%
    13:00 +23°C° 0 mm 9 mps 753 mmHg 45%
    14:00 +23°C° 0 mm 9 mps 753 mmHg 46%
    15:00 +23°C° 0 mm 9 mps 754 mmHg 48%
    16:00 +22°C° 0 mm 9 mps 754 mmHg 51%
    17:00 +21°C° 0 mm 8 mps 754 mmHg 54%
    18:00 +21°C° 0 mm 8 mps 754 mmHg 58%
    19:00 +20°C° 0 mm 8 mps 755 mmHg 61%
    20:00 +18°C° 0 mm 7 mps 755 mmHg 65%
    21:00 +17°C° 0 mm 7 mps 756 mmHg 69%
    22:00 +17°C° 0 mm 7 mps 756 mmHg 71%
    23:00 +16°C° 0 mm 6 mps 756 mmHg 72%

    Day after tomorrow, 6 June, Saturday

    Time Temperature Precipitation Wind Pressure Humidity
    00:00 +16°C° 0 mm 5 mps 756 mmHg 73%
    01:00 +16°C° 0 mm 5 mps 756 mmHg 74%
    02:00 +16°C° 0 mm 5 mps 756 mmHg 76%
    03:00 +16°C° 0 mm 5 mps 755 mmHg 77%
    04:00 +16°C° 0 mm 5 mps 755 mmHg 75%
    05:00 +17°C° 0 mm 5 mps 756 mmHg 73%
    06:00 +19°C° 0 mm 5 mps 756 mmHg 71%
    07:00 +20°C° 0 mm 4 mps 755 mmHg 65%
    08:00 +22°C° 0 mm 4 mps 755 mmHg 59%
    09:00 +23°C° 0 mm 4 mps 755 mmHg 53%
    10:00 +25°C° 0 mm 4 mps 755 mmHg 49%
    11:00 +26°C° 0 mm 4 mps 755 mmHg 46%
    12:00 +27°C° 0 mm 4 mps 755 mmHg 43%
    13:00 +27°C° 0 mm 5 mps 755 mmHg 45%
    14:00 +27°C° 0 mm 6 mps 754 mmHg 47%
    15:00 +27°C° 0 mm 7 mps 754 mmHg 49%
    16:00 +26°C° 0.1 mm 7 mps 754 mmHg 55%
    17:00 +24°C° 0.1 mm 7 mps 754 mmHg 61%
    18:00 +23°C° 0.1 mm 7 mps 754 mmHg 67%
    19:00 +22°C° 0.3 mm 6 mps 754 mmHg 71%
    20:00 +20°C° 0.3 mm 5 mps 755 mmHg 75%
    21:00 +19°C° 0.3 mm 4 mps 755 mmHg 80%
    22:00 +19°C° 0.1 mm 4 mps 755 mmHg 79%
    23:00 +19°C° 0.1 mm 4 mps 755 mmHg 79%

    7 June, Sunday

    Time Temperature Precipitation Wind Pressure Humidity
    00:00 +19°C° 0.1 mm 4 mps 755 mmHg 79%
    01:00 +19°C° 0.1 mm 4 mps 755 mmHg 76%
    02:00 +18°C° 0.1 mm 4 mps 755 mmHg 74%
    03:00 +17°C° 0.1 mm 5 mps 755 mmHg 72%
    04:00 +18°C° 0.2 mm 4 mps 755 mmHg 71%
    05:00 +18°C° 0.2 mm 4 mps 755 mmHg 71%
    06:00 +18°C° 0.2 mm 3 mps 755 mmHg 70%
    07:00 +17°C° 0.9 mm 4 mps 755 mmHg 75%
    08:00 +17°C° 0.9 mm 4 mps 756 mmHg 79%
    09:00 +15°C° 0.9 mm 5 mps 756 mmHg 84%
    10:00 +16°C° 0.7 mm 5 mps 756 mmHg 74%
    11:00 +19°C° 0.7 mm 4 mps 756 mmHg 64%
    12:00 +20°C° 0.7 mm 4 mps 756 mmHg 55%
    13:00 +22°C° 0 mm 4 mps 756 mmHg 48%
    14:00 +23°C° 0 mm 5 mps 756 mmHg 41%
    15:00 +25°C° 0 mm 5 mps 755 mmHg 34%
    16:00 +23°C° 0 mm 5 mps 756 mmHg 38%
    17:00 +23°C° 0 mm 5 mps 756 mmHg 42%
    18:00 +22°C° 0 mm 5 mps 756 mmHg 45%
    19:00 +20°C° 0 mm 6 mps 756 mmHg 48%
    20:00 +19°C° 0 mm 6 mps 756 mmHg 51%
    21:00 +16°C° 0 mm 7 mps 757 mmHg 54%
    22:00 +16°C° 0 mm 7 mps 757 mmHg 55%
    23:00 +15°C° 0 mm 6 mps 757 mmHg 57%

    8 June, Monday

    Time Temperature Precipitation Wind Pressure Humidity
    00:00 +14°C° 0 mm 6 mps 757 mmHg 58%
    01:00 +14°C° 0 mm 6 mps 757 mmHg 59%
    02:00 +14°C° 0 mm 6 mps 757 mmHg 60%
    03:00 +14°C° 0 mm 7 mps 757 mmHg 61%
    04:00 +14°C° 0 mm 6 mps 757 mmHg 60%
    05:00 +15°C° 0 mm 6 mps 757 mmHg 59%
    06:00 +15°C° 0 mm 6 mps 757 mmHg 58%
    07:00 +17°C° 0 mm 6 mps 757 mmHg 52%
    08:00 +19°C° 0 mm 6 mps 757 mmHg 45%
    09:00 +21°C° 0 mm 6 mps 757 mmHg 39%
    10:00 +22°C° 0 mm 5 mps 757 mmHg 37%
    11:00 +23°C° 0 mm 5 mps 757 mmHg 36%
    12:00 +25°C° 0 mm 5 mps 757 mmHg 34%
    13:00 +25°C° 0 mm 5 mps 757 mmHg 35%
    14:00 +26°C° 0 mm 5 mps 756 mmHg 35%
    15:00 +26°C° 0 mm 5 mps 756 mmHg 35%
    16:00 +24°C° 0 mm 6 mps 756 mmHg 40%
    17:00 +23°C° 0 mm 6 mps 757 mmHg 44%
    18:00 +22°C° 0 mm 6 mps 757 mmHg 48%
    19:00 +21°C° 0 mm 6 mps 757 mmHg 51%
    20:00 +20°C° 0 mm 6 mps 758 mmHg 54%
    21:00 +17°C° 0 mm 6 mps 759 mmHg 58%
    22:00 +17°C° 0 mm 6 mps 759 mmHg 60%
    23:00 +16°C° 0 mm 6 mps 759 mmHg 62%

    9 June, Tuesday

    Time Temperature Precipitation Wind Pressure Humidity
    00:00 +15°C° 0 mm 5 mps 759 mmHg 65%
    01:00 +15°C° 0 mm 5 mps 759 mmHg 66%
    02:00 +15°C° 0 mm 5 mps 759 mmHg 67%
    03:00 +14°C° 0 mm 5 mps 759 mmHg 68%
    04:00 +15°C° 0 mm 5 mps 759 mmHg 66%
    05:00 +15°C° 0 mm 5 mps 759 mmHg 64%
    06:00 +16°C° 0 mm 5 mps 760 mmHg 63%
    07:00 +19°C° 0 mm 5 mps 760 mmHg 56%
    08:00 +21°C° 0 mm 5 mps 760 mmHg 50%
    09:00 +22°C° 0 mm 5 mps 759 mmHg 44%
    10:00 +23°C° 0 mm 5 mps 759 mmHg 42%
    11:00 +25°C° 0 mm 5 mps 759 mmHg 39%
    12:00 +27°C° 0 mm 5 mps 759 mmHg 37%
    13:00 +26°C° 0 mm 4 mps 759 mmHg 39%
    14:00 +26°C° 0 mm 4 mps 759 mmHg 41%
    15:00 +26°C° 0 mm 4 mps 759 mmHg 42%
    16:00 +25°C° 0 mm 4 mps 759 mmHg 45%
    17:00 +25°C° 0 mm 5 mps 759 mmHg 48%
    18:00 +23°C° 0 mm 5 mps 759 mmHg 50%
    19:00 +22°C° 0 mm 5 mps 760 mmHg 53%
    20:00 +20°C° 0 mm 4 mps 760 mmHg 56%
    21:00 +19°C° 0 mm 4 mps 761 mmHg 59%
    22:00 +18°C° 0 mm 4 mps 761 mmHg 61%
    23:00 +18°C° 0 mm 3 mps 761 mmHg 63%
    Show more